{"data":{"norad_id":54676,"epoch":"2026-05-25T00:17:04.636608Z","epoch_age_seconds":67279,"freshness":"FRESH","line1":"1 54676U 22166AL  26145.01185922 -.00000010  00000+0 -55149-4 0  9991","line2":"2 54676  87.9254 248.5982 0001735  98.9640 261.1691 13.21824807168383","mean_motion":13.21824807,"eccentricity":0.0001735,"inclination_deg":87.9254,"raan_deg":248.5982,"arg_perigee_deg":98.964,"mean_anomaly_deg":261.1691,"bstar":-5.5149e-5,"rev_number":16838,"period_min":108.94030679211,"perigee_km":1176.4469669293,"apogee_km":1179.0688624647,"semimajor_km":7555.894914697,"source":"CELESTRAK","updated_at":"2026-05-25T13:38:22.637520Z"}}